Flag for Moldova Weather past 2 weeks in Chisinau, Moldova

36 °F

Light rain. Fog.

Feels Like: 27 °F
Forecast: 35 / 50 °F
Wind: 13 mph from Northeast

Location: Chisinau International Airport

Current Time: Nov 27, 2015 at 3:05:24 AM

Latest Report: Nov 27, 2015 at 2:30 AM

Visibility: 2 mi

Pressure: 30.01 "Hg

Humidity: 87%

Dew point: 32 °F

Location of ChisinauLocation

Historic Weather in Chisinau — Graph


Chisinau temperature yesterday

Maximum temperature yesterday: 37 °F (at 12:30 AM)
Minimum temperature yesterday: 36 °F (at 12:00 AM)
Average temperature yesterday: 36 °F

Past Weeks' High & Low Weather Summary

High66 °F (Nov 12, 11:30 AM)93% (Nov 17, 6:00 AM)30.33 "Hg (Nov 17, 6:00 AM)
Low25 °F (Nov 17, 6:00 AM)32% (Nov 15, 2:00 PM)29.24 "Hg (Nov 22, 4:30 AM)
Average47 °F67%29.93 "Hg
* Reported Nov 12 1:00 AM — Nov 27 1:30 AM, Chisinau, Weather by CustomWeather, © 2015

Note: Actual official high and low records may vary slightly from our data, if they occured in-between our weather recording intervals... More about our weather records


Chisinau weather history for previous 24 hours

Time TempWeatherWind HumidityBarometerVisibility
1:30 AM
Fri, Nov 27
36 °FLight rain. Fog.12 mph87%29.98 "Hg2 mi
1:00 AM36 °FLight rain. Fog.13 mph87%29.98 "Hg2 mi
12:00 AM36 °FLight rain. Fog.13 mph87%29.95 "Hg2 mi
11:30 PM
Thu, Nov 26
36 °FLight rain. Fog.13 mph87%29.95 "Hg2 mi
11:00 PM36 °FLight rain. Fog.15 mph87%29.95 "Hg2 mi
10:30 PM36 °FLight rain. Fog.13 mph87%29.95 "Hg2 mi
10:00 PM36 °FRain. Mostly cloudy.15 mph87%29.95 "Hg2 mi
9:30 PM36 °FRain. Mostly cloudy.15 mph87%29.95 "Hg2 mi
9:00 PM36 °FLight rain. Mostly cloudy.16 mph87%29.92 "Hg2 mi
8:30 PM36 °FRain. Fog.14 mph87%29.92 "Hg1 mi
8:00 PM36 °FRain. Fog.13 mph87%29.89 "Hg1 mi
7:30 PM36 °FRain. Fog.16 mph87%29.89 "Hg1 mi
7:00 PM36 °FLight rain. Fog.17 mph87%29.86 "Hg2 mi
6:30 PM36 °FRain. Mostly cloudy.15 mph87%29.86 "Hg2 mi
6:00 PM37 °FRain. Mostly cloudy.16 mph81%29.86 "Hg2 mi
5:30 PM37 °FRain. Mostly cloudy.14 mph81%29.83 "Hg2 mi
5:00 PM37 °FLight rain. Mostly cloudy.14 mph81%29.83 "Hg2 mi
4:30 PM36 °FLight rain. Low clouds.17 mph87%29.80 "Hg3 mi
4:00 PM37 °FLight rain. Low clouds.16 mph81%29.80 "Hg3 mi
3:30 PM37 °FLight rain. Low clouds.16 mph81%29.83 "Hg3 mi
3:00 PM36 °FLight rain. Low clouds.17 mph87%29.80 "Hg3 mi
2:30 PM37 °FLight rain. Low clouds.16 mph81%29.80 "Hg2 mi
2:00 PM37 °FLight rain. Low clouds.20 mph81%29.83 "Hg4 mi
1:30 PM37 °FLight rain. Overcast.16 mph81%29.83 "HgN/A
1:00 PM37 °FLow clouds.16 mph81%29.83 "HgN/A
12:30 PM37 °FLow clouds.15 mph81%29.83 "HgN/A
12:00 PM37 °FLow clouds.16 mph81%29.83 "HgN/A
11:30 AM37 °FLow clouds.17 mph81%29.83 "HgN/A
11:00 AM37 °FLow clouds.17 mph81%29.83 "HgN/A
10:30 AM36 °FLow clouds.17 mph87%29.83 "HgN/A
10:00 AM36 °FLow clouds.18 mph87%29.83 "HgN/A
9:30 AM36 °FLow clouds.17 mph87%29.83 "HgN/A
9:00 AM36 °FLow clouds.17 mph87%29.86 "HgN/A
8:30 AM36 °FLow clouds.15 mph87%29.83 "Hg6 mi
8:00 AM36 °FLow clouds.14 mph87%29.83 "Hg5 mi
7:30 AM36 °FLow clouds.15 mph87%29.83 "Hg4 mi
7:00 AM36 °FFog.14 mph87%29.83 "Hg2 mi
6:30 AM36 °FFog.13 mph87%29.83 "Hg2 mi
6:00 AM36 °FFog.14 mph87%29.83 "Hg2 mi
5:00 AM36 °FFog.12 mph87%29.86 "Hg2 mi
4:30 AM36 °FFog.13 mph87%29.86 "Hg1 mi
4:00 AM36 °FFog.12 mph87%29.86 "Hg1 mi
3:30 AM36 °FFog.13 mph87%29.86 "Hg2 mi
3:00 AM36 °FFog.13 mph93%29.86 "Hg2 mi
Weather by CustomWeather, © 2015

See weather overviewHow to use our weather pages